This is the latest recevied weather packets stored in our database for station/object N6WDO. If no packets are shown the sender has not sent any weather packets the latest 10 day(s).
| Time | Temp. | Humidity | Pressure | Rain* | Wind** | Luminosity | Snow |
|---|---|---|---|---|---|---|---|
| 1777916354 | 8.89° C | 97% | 1017 hPa | 1.27 mm | - | 78 W/m² | - |
| 1777916050 | 8.89° C | 97% | 1016.9 hPa | 1.27 mm | - | 72 W/m² | - |
| 1777915748 | 8.89° C | 97% | 1016.8 hPa | 1.27 mm | - | 62 W/m² | - |
| 1777915443 | 8.89° C | 97% | 1016.7 hPa | 0 mm | - | 38 W/m² | - |
| 1777915140 | 8.89° C | 97% | 1016.8 hPa | 0 mm | - | 47 W/m² | - |
| 1777914837 | 9.44° C | 97% | 1016.6 hPa | 0 mm | - | 53 W/m² | - |
| 1777914534 | 8.89° C | 97% | 1016.3 hPa | 0 mm | - | 59 W/m² | - |
| 1777914230 | 9.44° C | 97% | 1016.6 hPa | 0 mm | - | 44 W/m² | - |
| 1777913927 | 9.44° C | 97% | 1016.2 hPa | 0 mm | - | 31 W/m² | - |
| 1777913624 | 9.44° C | 97% | 1016.2 hPa | 0 mm | - | 39 W/m² | - |
| 1777913320 | 9.44° C | 96% | 1016.2 hPa | 0 mm | - | 56 W/m² | - |
| 1777913017 | 9.44° C | 96% | 1016 hPa | 0 mm | - | 47 W/m² | - |
| 1777912713 | 9.44° C | 96% | 1016.3 hPa | 0 mm | - | 46 W/m² | - |
| 1777912409 | 9.44° C | 96% | 1016.2 hPa | 0 mm | - | 41 W/m² | - |
| 1777912105 | 9.44° C | 95% | 1016.1 hPa | 0 mm | - | 44 W/m² | - |
| 1777911801 | 9.44° C | 95% | 1016 hPa | 0 mm | - | 47 W/m² | - |
| 1777911498 | 8.89° C | 95% | 1016.3 hPa | 0 mm | - | 34 W/m² | - |
| 1777911195 | 9.44° C | 95% | 1016.2 hPa | 0 mm | - | 27 W/m² | - |
| 1777910892 | 9.44° C | 95% | 1016.1 hPa | 0 mm | - | 28 W/m² | - |
| 1777910589 | 9.44° C | 94% | 1016 hPa | 0 mm | - | 27 W/m² | - |
| 1777910286 | 9.44° C | 94% | 1016 hPa | 0 mm | - | 26 W/m² | - |
| 1777909983 | 9.44° C | 93% | 1015.8 hPa | 0 mm | - | 26 W/m² | - |
| 1777909680 | 9.44° C | 93% | 1016.1 hPa | 0 mm | - | 31 W/m² | - |
| 1777909377 | 9.44° C | 92% | 1015.8 hPa | 0 mm | - | 39 W/m² | - |
| 1777909075 | 9.44° C | 92% | 1016 hPa | 0 mm | - | 38 W/m² | - |
* Rain latest hour (hover to see other rain measurements)
** Current wind speed in m/s (hover to see current wind gust speed)